Torna al catalogo

IRS 1D

AttivoScienzaSSO
NORAD 24971·PAYLOAD·🇮🇳 India

Lanciato Sep 29, 1997 da Satish Dhawan Space Centre

Loading…

Prossimi Passaggi (prossime 24 ore)

TLE

AggiornatoSource: Space-Track

Epoca: Sep 13, 2026, 22:17 UTC

1 24971U 97057A   26256.92887328  .00000101  00000-0  50753-4 0  9995
2 24971  98.8505 253.6001 0051511 327.9503  31.8552 14.35541647515341

Traccia IRS 1D in tempo reale con AllMySat

Download on the App Store